date,time,SUV Intensity [MED/Hr],UV Index,Daily total [MED],Since Last [MED]
01/05/2023,00:01:15,0.000,0.0,0.0,0.0
01/05/2023,00:02:15,-0.000,0.0,0.0,0.0
01/05/2023,00:03:15,0.000,0.0,0.0,0.0
01/05/2023,00:04:14,-0.000,0.0,0.0,0.0
01/05/2023,00:05:14,0.000,0.0,0.0,0.0
01/05/2023,00:06:14,0.000,0.0,0.0,0.0
01/05/2023,00:07:14,0.000,0.0,0.0,0.0
01/05/2023,00:08:14,0.000,0.0,0.0,0.0
01/05/2023,00:09:14,-0.000,0.0,0.0,0.0
01/05/2023,00:10:14,-0.000,0.0,0.0,0.0
01/05/2023,00:11:15,-0.000,0.0,0.0,0.0
01/05/2023,00:12:15,0.001,0.0,0.0,0.0
01/05/2023,00:13:15,0.000,0.0,0.0,0.0
01/05/2023,00:14:14,0.001,0.0,0.0,0.0
01/05/2023,00:15:14,0.000,0.0,0.0,0.0
01/05/2023,00:16:14,0.000,0.0,0.0,0.0
01/05/2023,00:17:15,0.001,0.0,0.0,0.0
01/05/2023,00:18:15,0.000,0.0,0.0,0.0
01/05/2023,00:19:15,-0.001,0.0,0.0,0.0
01/05/2023,00:20:15,0.000,0.0,0.0,0.0
01/05/2023,00:21:14,0.001,0.0,0.0,0.0
01/05/2023,00:22:15,-0.000,0.0,0.0,0.0
01/05/2023,00:23:14,0.000,0.0,0.0,0.0
01/05/2023,00:24:14,-0.000,0.0,0.0,0.0
01/05/2023,00:25:15,0.000,0.0,0.0,0.0
01/05/2023,00:26:15,-0.001,0.0,0.0,0.0
01/05/2023,00:27:15,0.000,0.0,0.0,0.0
01/05/2023,00:28:14,0.000,0.0,0.0,0.0
01/05/2023,00:29:14,0.000,0.0,0.0,0.0
01/05/2023,00:30:14,-0.001,0.0,0.0,0.0
01/05/2023,00:31:14,0.000,0.0,0.0,0.0
01/05/2023,00:32:15,0.000,0.0,0.0,0.0
01/05/2023,00:33:15,0.000,0.0,0.0,0.0
01/05/2023,00:34:14,0.001,0.0,0.0,0.0
01/05/2023,00:35:15,0.000,0.0,0.0,0.0
01/05/2023,00:36:15,0.000,0.0,0.0,0.0
01/05/2023,00:37:14,0.000,0.0,0.0,0.0
01/05/2023,00:38:14,0.000,0.0,0.0,0.0
01/05/2023,00:39:14,0.000,0.0,0.0,0.0
01/05/2023,00:40:14,0.000,0.0,0.0,0.0
01/05/2023,00:41:15,0.001,0.0,0.0,0.0
01/05/2023,00:42:14,0.001,0.0,0.0,0.0
01/05/2023,00:43:13,-0.001,0.0,0.0,0.0
01/05/2023,00:44:14,0.000,0.0,0.0,0.0
01/05/2023,00:45:15,0.000,0.0,0.0,0.0
01/05/2023,00:46:15,0.000,0.0,0.0,0.0
01/05/2023,00:47:15,0.001,0.0,0.0,0.0
01/05/2023,00:48:14,0.000,0.0,0.0,0.0
01/05/2023,00:49:14,0.000,0.0,0.0,0.0
01/05/2023,00:50:14,-0.000,0.0,0.0,0.0
01/05/2023,00:51:14,-0.001,0.0,0.0,0.0
01/05/2023,00:52:15,-0.001,0.0,0.0,0.0
01/05/2023,00:53:14,0.000,0.0,0.0,0.0
01/05/2023,00:54:15,0.000,0.0,0.0,0.0
01/05/2023,00:55:15,0.001,0.0,0.0,0.0
01/05/2023,00:56:15,0.000,0.0,0.0,0.0
01/05/2023,00:57:14,-0.000,0.0,0.0,0.0
01/05/2023,00:58:14,0.002,0.0,0.0,0.0
01/05/2023,00:59:15,0.000,0.0,0.0,0.0
01/05/2023,01:00:15,0.000,0.0,0.0,0.0
01/05/2023,01:01:14,0.001,0.0,0.0,0.0
01/05/2023,01:02:14,-0.000,0.0,0.0,0.0
01/05/2023,01:03:15,0.000,0.0,0.0,0.0
01/05/2023,01:04:15,0.001,0.0,0.0,0.0
01/05/2023,01:05:15,0.001,0.0,0.0,0.0
01/05/2023,01:06:15,0.000,0.0,0.0,0.0
01/05/2023,01:07:15,0.000,0.0,0.0,0.0
01/05/2023,01:08:14,0.001,0.0,0.0,0.0
01/05/2023,01:09:15,0.000,0.0,0.0,0.0
01/05/2023,01:10:14,0.001,0.0,0.0,0.0
01/05/2023,01:11:15,0.001,0.0,0.0,0.0
01/05/2023,01:12:15,0.001,0.0,0.0,0.0
01/05/2023,01:13:15,0.001,0.0,0.0,0.0
01/05/2023,01:14:14,0.001,0.0,0.0,0.0
01/05/2023,01:15:44,0.001,0.0,0.0,0.0
01/05/2023,01:17:15,-0.001,0.0,0.0,0.0
01/05/2023,01:18:14,0.001,0.0,0.0,0.0
01/05/2023,01:19:15,0.000,0.0,0.0,0.0
01/05/2023,01:20:14,0.000,0.0,0.0,0.0
01/05/2023,01:21:14,-0.000,0.0,0.0,0.0
01/05/2023,01:22:14,0.001,0.0,0.0,0.0
01/05/2023,01:23:14,0.001,0.0,0.0,0.0
01/05/2023,01:24:15,0.000,0.0,0.0,0.0
01/05/2023,01:25:15,-0.000,0.0,0.0,0.0
01/05/2023,01:26:14,0.001,0.0,0.0,0.0
01/05/2023,01:27:15,0.000,0.0,0.0,0.0
01/05/2023,01:28:14,0.001,0.0,0.0,0.0
01/05/2023,01:29:15,0.001,0.0,0.0,0.0
01/05/2023,01:30:15,0.001,0.0,0.0,0.0
01/05/2023,01:31:15,0.001,0.0,0.0,0.0
01/05/2023,01:32:15,0.000,0.0,0.0,0.0
01/05/2023,01:33:15,0.001,0.0,0.0,0.0
01/05/2023,01:34:15,0.001,0.0,0.0,0.0
01/05/2023,01:35:15,-0.001,0.0,0.0,0.0
01/05/2023,01:36:14,0.001,0.0,0.0,0.0
01/05/2023,01:37:14,0.001,0.0,0.0,0.0
01/05/2023,01:38:14,0.001,0.0,0.0,0.0
01/05/2023,01:39:15,0.001,0.0,0.0,0.0
01/05/2023,01:40:15,0.001,0.0,0.0,0.0
01/05/2023,01:41:15,0.001,0.0,0.0,0.0
01/05/2023,01:42:15,0.001,0.0,0.0,0.0
01/05/2023,01:43:15,-0.001,0.0,0.0,0.0
01/05/2023,01:44:15,-0.000,0.0,0.0,0.0
01/05/2023,01:45:14,0.001,0.0,0.0,0.0
01/05/2023,01:46:14,0.000,0.0,0.0,0.0
01/05/2023,01:47:15,-0.000,0.0,0.0,0.0
01/05/2023,01:48:15,0.001,0.0,0.0,0.0
01/05/2023,01:49:15,0.000,0.0,0.0,0.0
01/05/2023,01:50:14,0.001,0.0,0.0,0.0
01/05/2023,01:51:14,0.001,0.0,0.0,0.0
01/05/2023,01:52:14,-0.001,0.0,0.0,0.0
01/05/2023,01:53:15,-0.000,0.0,0.0,0.0
01/05/2023,01:54:14,-0.000,0.0,0.0,0.0
01/05/2023,01:55:15,0.000,0.0,0.0,0.0
01/05/2023,01:56:15,-0.001,0.0,0.0,0.0
01/05/2023,01:57:15,0.000,0.0,0.0,0.0
01/05/2023,01:58:15,0.001,0.0,0.0,0.0
01/05/2023,01:59:15,0.000,0.0,0.0,0.0
01/05/2023,02:00:14,-0.000,0.0,0.0,0.0
01/05/2023,02:01:15,0.000,0.0,0.0,0.0
01/05/2023,02:02:16,-0.000,0.0,0.0,0.0
01/05/2023,02:03:14,-0.000,0.0,0.0,0.0
01/05/2023,02:04:14,0.001,0.0,0.0,0.0
01/05/2023,02:05:14,0.000,0.0,0.0,0.0
01/05/2023,02:06:14,-0.000,0.0,0.0,0.0
01/05/2023,02:07:15,0.001,0.0,0.0,0.0
01/05/2023,02:08:15,0.001,0.0,0.0,0.0
01/05/2023,02:09:14,0.000,0.0,0.0,0.0
01/05/2023,02:10:14,0.000,0.0,0.0,0.0
01/05/2023,02:11:14,0.002,0.0,0.0,0.0
01/05/2023,02:12:14,0.000,0.0,0.0,0.0
01/05/2023,02:13:14,0.001,0.0,0.0,0.0
01/05/2023,02:14:15,0.001,0.0,0.0,0.0
01/05/2023,02:15:14,0.000,0.0,0.0,0.0
01/05/2023,02:16:15,0.001,0.0,0.0,0.0
01/05/2023,02:17:15,0.000,0.0,0.0,0.0
01/05/2023,02:18:15,0.001,0.0,0.0,0.0
01/05/2023,02:19:15,0.001,0.0,0.0,0.0
01/05/2023,02:20:15,0.002,0.0,0.0,0.0
01/05/2023,02:21:15,0.001,0.0,0.0,0.0
01/05/2023,02:22:14,0.001,0.0,0.0,0.0
01/05/2023,02:23:15,0.001,0.0,0.0,0.0
01/05/2023,02:24:15,0.001,0.0,0.0,0.0
01/05/2023,02:25:15,-0.000,0.0,0.0,0.0
01/05/2023,02:26:14,0.001,0.0,0.0,0.0
01/05/2023,02:27:15,0.001,0.0,0.0,0.0
01/05/2023,02:28:15,0.001,0.0,0.0,0.0
01/05/2023,02:29:14,0.001,0.0,0.0,0.0
01/05/2023,02:30:14,0.001,0.0,0.0,0.0
01/05/2023,02:31:14,0.001,0.0,0.0,0.0
01/05/2023,02:32:15,-0.000,0.0,0.0,0.0
01/05/2023,02:33:15,0.000,0.0,0.0,0.0
01/05/2023,02:34:15,0.000,0.0,0.0,0.0
01/05/2023,02:35:15,0.000,0.0,0.0,0.0
01/05/2023,02:36:15,0.001,0.0,0.0,0.0
01/05/2023,02:37:15,0.002,0.0,0.0,0.0
01/05/2023,02:38:14,0.001,0.0,0.0,0.0
01/05/2023,02:39:14,0.001,0.0,0.0,0.0
01/05/2023,02:40:15,0.001,0.0,0.0,0.0
01/05/2023,02:41:14,0.000,0.0,0.0,0.0
01/05/2023,02:42:15,0.001,0.0,0.0,0.0
01/05/2023,02:43:14,0.000,0.0,0.0,0.0
01/05/2023,02:44:14,0.001,0.0,0.0,0.0
01/05/2023,02:45:14,0.001,0.0,0.0,0.0
01/05/2023,02:46:15,0.001,0.0,0.0,0.0
01/05/2023,02:47:15,0.002,0.0,0.0,0.0
01/05/2023,02:48:15,0.001,0.0,0.0,0.0
01/05/2023,02:49:15,0.001,0.0,0.0,0.0
01/05/2023,02:50:15,0.001,0.0,0.0,0.0
01/05/2023,02:51:15,0.001,0.0,0.0,0.0
01/05/2023,02:52:15,0.001,0.0,0.0,0.0
01/05/2023,02:53:14,0.001,0.0,0.0,0.0
01/05/2023,02:54:14,0.001,0.0,0.0,0.0
01/05/2023,02:55:15,0.001,0.0,0.0,0.0
01/05/2023,02:56:15,0.001,0.0,0.0,0.0
01/05/2023,02:57:15,0.002,0.0,0.0,0.0
01/05/2023,02:58:15,0.002,0.0,0.0,0.0
01/05/2023,02:59:14,0.001,0.0,0.0,0.0
01/05/2023,03:00:15,-0.000,0.0,0.0,0.0
01/05/2023,03:01:15,0.001,0.0,0.0,0.0
01/05/2023,03:02:15,0.002,0.0,0.0,0.0
01/05/2023,03:03:15,0.002,0.0,0.0,0.0
01/05/2023,03:04:15,0.001,0.0,0.0,0.0
01/05/2023,03:05:15,0.001,0.0,0.0,0.0
01/05/2023,03:06:15,0.001,0.0,0.0,0.0
01/05/2023,03:07:15,0.002,0.0,0.0,0.0
01/05/2023,03:08:15,0.001,0.0,0.0,0.0
01/05/2023,03:09:14,0.001,0.0,0.0,0.0
01/05/2023,03:10:14,0.001,0.0,0.0,0.0
01/05/2023,03:11:14,0.001,0.0,0.0,0.0
01/05/2023,03:12:14,0.001,0.0,0.0,0.0
01/05/2023,03:13:15,0.000,0.0,0.0,0.0
01/05/2023,03:14:15,-0.000,0.0,0.0,0.0
01/05/2023,03:15:15,0.001,0.0,0.0,0.0
01/05/2023,03:16:15,0.001,0.0,0.0,0.0
01/05/2023,03:17:15,0.001,0.0,0.0,0.0
01/05/2023,03:18:15,0.001,0.0,0.0,0.0
01/05/2023,03:19:14,0.000,0.0,0.0,0.0
01/05/2023,03:20:15,0.001,0.0,0.0,0.0
01/05/2023,03:21:15,0.001,0.0,0.0,0.0
01/05/2023,03:22:15,0.000,0.0,0.0,0.0
01/05/2023,03:23:15,0.001,0.0,0.0,0.0
01/05/2023,03:24:15,0.002,0.0,0.0,0.0
01/05/2023,03:25:14,0.001,0.0,0.0,0.0
01/05/2023,03:26:15,-0.000,0.0,0.0,0.0
01/05/2023,03:27:15,0.001,0.0,0.0,0.0
01/05/2023,03:28:15,0.002,0.0,0.0,0.0
01/05/2023,03:29:15,0.001,0.0,0.0,0.0
01/05/2023,03:30:15,0.000,0.0,0.0,0.0
01/05/2023,03:31:15,0.001,0.0,0.0,0.0
01/05/2023,03:32:15,0.001,0.0,0.0,0.0
01/05/2023,03:33:14,0.001,0.0,0.0,0.0
01/05/2023,03:34:15,0.000,0.0,0.0,0.0
01/05/2023,03:35:15,0.001,0.0,0.0,0.0
01/05/2023,03:36:15,-0.001,0.0,0.0,0.0
01/05/2023,03:37:15,0.001,0.0,0.0,0.0
01/05/2023,03:38:15,0.000,0.0,0.0,0.0
01/05/2023,03:39:15,0.001,0.0,0.0,0.0
01/05/2023,03:40:15,0.002,0.0,0.0,0.0
01/05/2023,03:41:15,0.000,0.0,0.0,0.0
01/05/2023,03:42:15,0.001,0.0,0.0,0.0
01/05/2023,03:43:15,0.000,0.0,0.0,0.0
01/05/2023,03:44:14,0.001,0.0,0.0,0.0
01/05/2023,03:45:15,0.000,0.0,0.0,0.0
01/05/2023,03:46:15,0.001,0.0,0.0,0.0
01/05/2023,03:47:15,0.000,0.0,0.0,0.0
01/05/2023,03:48:15,0.001,0.0,0.0,0.0
01/05/2023,03:49:15,-0.000,0.0,0.0,0.0
01/05/2023,03:50:14,0.000,0.0,0.0,0.0
01/05/2023,03:51:14,0.001,0.0,0.0,0.0
01/05/2023,03:52:15,0.001,0.0,0.0,0.0
01/05/2023,03:53:15,-0.000,0.0,0.0,0.0
01/05/2023,03:54:15,0.001,0.0,0.0,0.0
01/05/2023,03:55:15,0.001,0.0,0.0,0.0
01/05/2023,03:56:15,0.001,0.0,0.0,0.0
01/05/2023,03:57:15,-0.000,0.0,0.0,0.0
01/05/2023,03:58:15,0.001,0.0,0.0,0.0
01/05/2023,03:59:15,0.001,0.0,0.0,0.0
01/05/2023,04:00:15,0.001,0.0,0.0,0.0
01/05/2023,04:01:15,0.001,0.0,0.0,0.0
01/05/2023,04:02:15,0.001,0.0,0.0,0.0
01/05/2023,04:03:15,0.001,0.0,0.0,0.0
01/05/2023,04:04:15,0.001,0.0,0.0,0.0
01/05/2023,04:05:15,0.001,0.0,0.0,0.0
01/05/2023,04:06:14,0.001,0.0,0.0,0.0
01/05/2023,04:07:15,0.001,0.0,0.0,0.0
01/05/2023,04:08:15,0.001,0.0,0.0,0.0
01/05/2023,04:09:15,0.001,0.0,0.0,0.0
01/05/2023,04:10:15,0.001,0.0,0.0,0.0
01/05/2023,04:11:15,0.000,0.0,0.0,0.0
01/05/2023,04:12:15,0.000,0.0,0.0,0.0
01/05/2023,04:13:14,0.001,0.0,0.0,0.0
01/05/2023,04:14:15,0.001,0.0,0.0,0.0
01/05/2023,04:15:15,0.001,0.0,0.0,0.0
01/05/2023,04:16:15,0.000,0.0,0.0,0.0
01/05/2023,04:17:15,0.000,0.0,0.0,0.0
01/05/2023,04:18:15,0.000,0.0,0.0,0.0
01/05/2023,04:19:14,0.001,0.0,0.0,0.0
01/05/2023,04:20:15,0.001,0.0,0.0,0.0
01/05/2023,04:21:15,0.001,0.0,0.0,0.0
01/05/2023,04:22:15,0.002,0.0,0.0,0.0
01/05/2023,04:23:15,0.001,0.0,0.0,0.0
01/05/2023,04:24:15,0.001,0.0,0.0,0.0
01/05/2023,04:25:15,0.001,0.0,0.0,0.0
01/05/2023,04:26:15,0.002,0.0,0.0,0.0
01/05/2023,04:27:15,0.001,0.0,0.0,0.0
01/05/2023,04:28:15,0.001,0.0,0.0,0.0
01/05/2023,04:29:15,0.002,0.0,0.0,0.0
01/05/2023,04:30:15,0.002,0.0,0.0,0.0
01/05/2023,04:31:15,0.001,0.0,0.0,0.0
01/05/2023,04:32:15,0.002,0.0,0.0,0.0
01/05/2023,04:33:16,0.002,0.0,0.0,0.0
01/05/2023,04:34:16,0.002,0.0,0.0,0.0
01/05/2023,04:35:15,0.002,0.0,0.0,0.0
01/05/2023,04:36:15,0.002,0.0,0.0,0.0
01/05/2023,04:37:15,0.002,0.0,0.0,0.0
01/05/2023,04:38:15,0.003,0.0,0.0,0.0
01/05/2023,04:39:14,0.002,0.0,0.0,0.0
01/05/2023,04:40:15,0.002,0.0,0.0,0.0
01/05/2023,04:41:15,0.002,0.0,0.0,0.0
01/05/2023,04:42:15,0.003,0.0,0.0,0.0
01/05/2023,04:43:15,0.003,0.0,0.0,0.0
01/05/2023,04:44:15,0.003,0.0,0.0,0.0
01/05/2023,04:45:15,0.003,0.0,0.0,0.0
01/05/2023,04:46:14,0.003,0.0,0.0,0.0
01/05/2023,04:47:15,0.003,0.0,0.0,0.0
01/05/2023,04:48:15,0.004,0.0,0.0,0.0
01/05/2023,04:49:15,0.004,0.0,0.0,0.0
01/05/2023,04:50:15,0.004,0.0,0.0,0.0
01/05/2023,04:51:15,0.004,0.0,0.0,0.0
01/05/2023,04:52:15,0.005,0.0,0.0,0.0
01/05/2023,04:53:15,0.005,0.0,0.0,0.0
01/05/2023,04:54:15,0.004,0.0,0.0,0.0
01/05/2023,04:55:15,0.006,0.0,0.0,0.0
01/05/2023,04:56:15,0.006,0.0,0.0,0.0
01/05/2023,04:57:15,0.007,0.0,0.0,0.0
01/05/2023,04:58:14,0.005,0.0,0.0,0.0
01/05/2023,04:59:15,0.005,0.0,0.0,0.0
01/05/2023,05:00:15,0.006,0.0,0.0,0.0
01/05/2023,05:01:14,0.007,0.0,0.0,0.0
01/05/2023,05:02:15,0.007,0.0,0.0,0.0
01/05/2023,05:03:15,0.007,0.0,0.0,0.0
01/05/2023,05:04:15,0.008,0.0,0.0,0.0
01/05/2023,05:05:15,0.008,0.0,0.001,0.001
01/05/2023,05:06:15,0.009,0.0,0.001,0.0
01/05/2023,05:07:15,0.010,0.0,0.001,0.0
01/05/2023,05:08:15,0.009,0.0,0.001,0.0
01/05/2023,05:09:15,0.010,0.0,0.001,0.0
01/05/2023,05:10:15,0.011,0.0,0.001,0.0
01/05/2023,05:11:15,0.011,0.0,0.002,0.001
01/05/2023,05:12:15,0.012,0.0,0.002,0.0
01/05/2023,05:13:15,0.012,0.0,0.002,0.0
01/05/2023,05:14:15,0.013,0.0,0.002,0.0
01/05/2023,05:15:15,0.015,0.0,0.002,0.0
01/05/2023,05:16:14,0.015,0.0,0.003,0.001
01/05/2023,05:17:15,0.016,0.0,0.003,0.0
01/05/2023,05:18:15,0.015,0.0,0.003,0.0
01/05/2023,05:19:15,0.016,0.0,0.003,0.0
01/05/2023,05:20:14,0.016,0.0,0.004,0.001
01/05/2023,05:21:15,0.017,0.0,0.004,0.0
01/05/2023,05:22:15,0.018,0.0,0.004,0.0
01/05/2023,05:23:15,0.018,0.0,0.005,0.001
01/05/2023,05:24:15,0.019,0.0,0.005,0.0
01/05/2023,05:25:15,0.020,0.0,0.005,0.0
01/05/2023,05:26:15,0.021,0.0,0.006,0.001
01/05/2023,05:27:15,0.021,0.0,0.006,0.0
01/05/2023,05:28:15,0.020,0.0,0.006,0.0
01/05/2023,05:29:15,0.021,0.0,0.007,0.001
01/05/2023,05:30:15,0.022,0.0,0.007,0.0
01/05/2023,05:31:15,0.022,0.0,0.007,0.0
01/05/2023,05:32:15,0.023,0.0,0.008,0.001
01/05/2023,05:33:15,0.024,0.0,0.008,0.0
01/05/2023,05:34:15,0.023,0.0,0.008,0.0
01/05/2023,05:35:15,0.024,0.0,0.009,0.001
01/05/2023,05:36:15,0.024,0.0,0.009,0.0
01/05/2023,05:37:15,0.026,0.0,0.01,0.001
01/05/2023,05:38:15,0.026,0.0,0.01,0.0
01/05/2023,05:39:15,0.026,0.0,0.011,0.001
01/05/2023,05:40:15,0.028,0.0,0.011,0.0
01/05/2023,05:41:15,0.027,0.0,0.011,0.0
01/05/2023,05:42:15,0.026,0.0,0.012,0.001
01/05/2023,05:43:16,0.025,0.0,0.012,0.0
01/05/2023,05:44:15,0.024,0.0,0.013,0.001
01/05/2023,05:45:15,0.022,0.0,0.013,0.0
01/05/2023,05:46:15,0.021,0.0,0.014,0.001
01/05/2023,05:47:15,0.020,0.0,0.014,0.0
01/05/2023,05:48:15,0.022,0.0,0.014,0.0
01/05/2023,05:49:15,0.023,0.0,0.015,0.001
01/05/2023,05:50:15,0.023,0.0,0.015,0.0
01/05/2023,05:51:15,0.021,0.0,0.015,0.0
01/05/2023,05:52:15,0.022,0.0,0.016,0.001
01/05/2023,05:53:15,0.023,0.0,0.016,0.0
01/05/2023,05:54:15,0.024,0.0,0.016,0.0
01/05/2023,05:55:15,0.026,0.0,0.017,0.001
01/05/2023,05:56:15,0.028,0.0,0.017,0.0
01/05/2023,05:57:15,0.029,0.0,0.018,0.001
01/05/2023,05:58:15,0.030,0.0,0.018,0.0
01/05/2023,05:59:15,0.033,0.0,0.019,0.001
01/05/2023,06:00:15,0.033,0.0,0.019,0.0
01/05/2023,06:01:15,0.033,0.0,0.02,0.001
01/05/2023,06:02:15,0.032,0.0,0.02,0.0
01/05/2023,06:03:15,0.029,0.0,0.021,0.001
01/05/2023,06:04:15,0.025,0.0,0.021,0.0
01/05/2023,06:05:15,0.022,0.0,0.022,0.001
01/05/2023,06:06:15,0.023,0.0,0.022,0.0
01/05/2023,06:07:16,0.027,0.0,0.023,0.001
01/05/2023,06:08:15,0.032,0.0,0.023,0.0
01/05/2023,06:09:15,0.033,0.0,0.024,0.001
01/05/2023,06:10:15,0.036,0.0,0.024,0.0
01/05/2023,06:11:15,0.036,0.0,0.025,0.001
01/05/2023,06:12:15,0.035,0.0,0.025,0.0
01/05/2023,06:13:15,0.035,0.0,0.026,0.001
01/05/2023,06:14:15,0.034,0.0,0.027,0.001
01/05/2023,06:15:15,0.036,0.0,0.027,0.0
01/05/2023,06:16:15,0.037,0.0,0.028,0.001
01/05/2023,06:17:15,0.040,0.0,0.028,0.0
01/05/2023,06:18:15,0.039,0.0,0.029,0.001
01/05/2023,06:19:15,0.039,0.0,0.03,0.001
01/05/2023,06:20:15,0.038,0.0,0.03,0.0
01/05/2023,06:21:16,0.037,0.0,0.031,0.001
01/05/2023,06:22:15,0.039,0.0,0.032,0.001
01/05/2023,06:23:15,0.041,0.0,0.032,0.0
01/05/2023,06:24:16,0.045,0.0,0.033,0.001
01/05/2023,06:25:15,0.046,0.0,0.034,0.001
01/05/2023,06:26:15,0.048,0.0,0.035,0.001
01/05/2023,06:27:15,0.051,0.0,0.035,0.0
01/05/2023,06:28:15,0.048,0.0,0.036,0.001
01/05/2023,06:29:15,0.045,0.0,0.037,0.001
01/05/2023,06:30:15,0.043,0.0,0.038,0.001
01/05/2023,06:31:15,0.043,0.0,0.038,0.0
01/05/2023,06:32:15,0.043,0.0,0.039,0.001
01/05/2023,06:33:16,0.044,0.0,0.04,0.001
01/05/2023,06:34:16,0.047,0.0,0.041,0.001
01/05/2023,06:35:15,0.050,0.0,0.042,0.001
01/05/2023,06:36:15,0.052,0.0,0.042,0.0
01/05/2023,06:37:15,0.053,0.0,0.043,0.001
01/05/2023,06:38:15,0.057,0.0,0.044,0.001
01/05/2023,06:39:15,0.060,0.0,0.045,0.001
01/05/2023,06:40:15,0.068,0.0,0.046,0.001
01/05/2023,06:41:15,0.074,0.0,0.047,0.001
01/05/2023,06:42:15,0.079,0.0,0.049,0.002
01/05/2023,06:43:15,0.083,0.0,0.05,0.001
01/05/2023,06:44:15,0.087,0.0,0.051,0.001
01/05/2023,06:45:15,0.087,0.0,0.053,0.002
01/05/2023,06:46:16,0.089,0.0,0.054,0.001
01/05/2023,06:47:15,0.091,0.0,0.056,0.002
01/05/2023,06:48:15,0.096,0.0,0.057,0.001
01/05/2023,06:49:16,0.100,0.0,0.059,0.002
01/05/2023,06:50:15,0.098,0.0,0.061,0.002
01/05/2023,06:51:15,0.097,0.0,0.062,0.001
01/05/2023,06:52:15,0.096,0.0,0.064,0.002
01/05/2023,06:53:15,0.096,0.0,0.065,0.001
01/05/2023,06:54:15,0.092,0.0,0.067,0.002
01/05/2023,06:55:15,0.086,0.0,0.069,0.002
01/05/2023,06:56:15,0.080,0.0,0.07,0.001
01/05/2023,06:57:15,0.078,0.0,0.071,0.001
01/05/2023,06:58:15,0.076,0.0,0.073,0.002
01/05/2023,06:59:16,0.077,0.0,0.074,0.001
01/05/2023,07:00:15,0.085,0.0,0.075,0.001
01/05/2023,07:01:15,0.093,0.0,0.077,0.002
01/05/2023,07:02:15,0.096,0.0,0.078,0.001
01/05/2023,07:03:15,0.099,0.0,0.08,0.002
01/05/2023,07:04:15,0.104,0.0,0.082,0.002
01/05/2023,07:05:15,0.107,0.0,0.083,0.001
01/05/2023,07:06:15,0.112,0.0,0.085,0.002
01/05/2023,07:07:15,0.118,0.0,0.087,0.002
01/05/2023,07:08:16,0.122,0.0,0.089,0.002
01/05/2023,07:09:15,0.125,0.0,0.091,0.002
01/05/2023,07:10:15,0.129,0.0,0.093,0.002
01/05/2023,07:11:15,0.133,0.0,0.095,0.002
01/05/2023,07:12:15,0.138,0.0,0.098,0.003
01/05/2023,07:13:15,0.141,0.0,0.1,0.002
01/05/2023,07:14:16,0.146,0.0,0.102,0.002
01/05/2023,07:15:16,0.151,0.0,0.105,0.003
01/05/2023,07:16:15,0.155,0.0,0.107,0.002
01/05/2023,07:17:15,0.159,0.0,0.11,0.003
01/05/2023,07:18:15,0.160,0.0,0.113,0.003
01/05/2023,07:19:16,0.160,0.0,0.115,0.002
01/05/2023,07:20:15,0.162,0.0,0.118,0.003
01/05/2023,07:21:16,0.159,0.0,0.121,0.003
01/05/2023,07:22:15,0.155,0.0,0.123,0.002
01/05/2023,07:23:15,0.148,0.0,0.126,0.003
01/05/2023,07:24:15,0.141,0.0,0.128,0.002
01/05/2023,07:25:16,0.137,0.0,0.131,0.003
01/05/2023,07:26:15,0.135,0.0,0.133,0.002
01/05/2023,07:27:15,0.133,0.0,0.135,0.002
01/05/2023,07:28:15,0.141,0.0,0.137,0.002
01/05/2023,07:29:15,0.154,0.0,0.14,0.003
01/05/2023,07:30:15,0.166,0.0,0.142,0.002
01/05/2023,07:31:16,0.175,0.0,0.145,0.003
01/05/2023,07:32:15,0.180,0.0,0.148,0.003
01/05/2023,07:33:15,0.183,0.0,0.151,0.003
01/05/2023,07:34:15,0.192,0.0,0.154,0.003
01/05/2023,07:35:15,0.200,0.0,0.158,0.004
01/05/2023,07:36:16,0.206,0.0,0.161,0.003
01/05/2023,07:37:15,0.212,0.0,0.165,0.004
01/05/2023,07:38:15,0.220,1.0,0.168,0.003
01/05/2023,07:39:15,0.226,1.0,0.172,0.004
01/05/2023,07:40:16,0.234,1.0,0.176,0.004
01/05/2023,07:41:15,0.242,1.0,0.18,0.004
01/05/2023,07:42:16,0.251,1.0,0.184,0.004
01/05/2023,07:43:15,0.265,1.0,0.188,0.004
01/05/2023,07:44:16,0.277,1.0,0.193,0.005
01/05/2023,07:45:15,0.288,1.0,0.197,0.004
01/05/2023,07:46:15,0.298,1.0,0.202,0.005
01/05/2023,07:47:15,0.306,1.0,0.207,0.005
01/05/2023,07:48:16,0.314,1.0,0.212,0.005
01/05/2023,07:49:16,0.324,1.0,0.218,0.006
01/05/2023,07:50:15,0.376,1.0,0.223,0.005
01/05/2023,07:51:15,0.363,1.0,0.23,0.007
01/05/2023,07:52:16,0.374,1.0,0.236,0.006
01/05/2023,07:53:15,0.444,1.0,0.242,0.006
01/05/2023,07:54:15,0.402,1.0,0.249,0.007
01/05/2023,07:55:15,0.419,1.0,0.256,0.007
01/05/2023,07:56:15,0.421,1.0,0.263,0.007
01/05/2023,07:57:15,0.393,1.0,0.27,0.007
01/05/2023,07:58:15,0.449,1.0,0.277,0.007
01/05/2023,07:59:15,0.466,1.0,0.285,0.008
01/05/2023,08:00:15,0.498,1.0,0.293,0.008
01/05/2023,08:01:15,0.405,1.0,0.301,0.008
01/05/2023,08:02:16,0.420,1.0,0.308,0.007
01/05/2023,08:03:15,0.335,1.0,0.314,0.006
01/05/2023,08:04:15,0.329,1.0,0.32,0.006
01/05/2023,08:05:15,0.383,1.0,0.325,0.005
01/05/2023,08:06:15,0.362,1.0,0.332,0.007
01/05/2023,08:07:16,0.337,1.0,0.337,0.005
01/05/2023,08:08:15,0.331,1.0,0.343,0.006
01/05/2023,08:09:15,0.326,1.0,0.348,0.005
01/05/2023,08:10:15,0.318,1.0,0.354,0.006
01/05/2023,08:11:15,0.334,1.0,0.359,0.005
01/05/2023,08:12:15,0.345,1.0,0.365,0.006
01/05/2023,08:13:15,0.350,1.0,0.371,0.006
01/05/2023,08:14:15,0.333,1.0,0.376,0.005
01/05/2023,08:15:15,0.325,1.0,0.382,0.006
01/05/2023,08:16:15,0.332,1.0,0.387,0.005
01/05/2023,08:17:15,0.359,1.0,0.393,0.006
01/05/2023,08:18:16,0.407,1.0,0.399,0.006
01/05/2023,08:19:16,0.469,1.0,0.407,0.008
01/05/2023,08:20:16,0.459,1.0,0.414,0.007
01/05/2023,08:21:15,0.456,1.0,0.422,0.008
01/05/2023,08:22:15,0.469,1.0,0.429,0.007
01/05/2023,08:23:17,0.470,1.0,0.438,0.009
01/05/2023,08:24:15,0.458,1.0,0.445,0.007
01/05/2023,08:25:16,0.476,1.0,0.453,0.008
01/05/2023,08:26:15,0.470,1.0,0.461,0.008
01/05/2023,08:27:16,0.488,1.0,0.469,0.008
01/05/2023,08:28:15,0.538,1.0,0.478,0.009
01/05/2023,08:29:16,0.617,1.0,0.487,0.009
01/05/2023,08:30:15,0.585,1.0,0.496,0.009
01/05/2023,08:31:15,0.562,1.0,0.507,0.011
01/05/2023,08:32:15,0.512,1.0,0.515,0.008
01/05/2023,08:33:15,0.507,1.0,0.524,0.009
01/05/2023,08:34:16,0.522,1.0,0.532,0.008
01/05/2023,08:35:16,0.528,1.0,0.541,0.009
01/05/2023,08:36:14,0.524,1.0,0.55,0.009
01/05/2023,08:37:16,0.509,1.0,0.559,0.009
01/05/2023,08:38:15,0.472,1.0,0.567,0.008
01/05/2023,08:39:15,0.446,1.0,0.574,0.007
01/05/2023,08:40:16,0.450,1.0,0.582,0.008
01/05/2023,08:41:16,0.447,1.0,0.589,0.007
01/05/2023,08:42:15,0.465,1.0,0.597,0.008
01/05/2023,08:43:15,0.488,1.0,0.605,0.008
01/05/2023,08:44:15,0.493,1.0,0.613,0.008
01/05/2023,08:45:16,0.488,1.0,0.621,0.008
01/05/2023,08:46:16,0.496,1.0,0.629,0.008
01/05/2023,08:47:15,0.511,1.0,0.637,0.008
01/05/2023,08:48:16,0.515,1.0,0.646,0.009
01/05/2023,08:49:16,0.498,1.0,0.655,0.009
01/05/2023,08:50:15,0.474,1.0,0.663,0.008
01/05/2023,08:51:16,0.431,1.0,0.67,0.007
01/05/2023,08:52:15,0.375,1.0,0.677,0.007
01/05/2023,08:53:16,0.307,1.0,0.683,0.006
01/05/2023,08:54:15,0.232,1.0,0.687,0.004
01/05/2023,08:55:16,0.173,0.0,0.691,0.004
01/05/2023,08:56:15,0.138,0.0,0.693,0.002
01/05/2023,08:57:16,0.137,0.0,0.695,0.002
01/05/2023,08:58:14,0.161,0.0,0.698,0.003
01/05/2023,08:59:15,0.205,0.0,0.701,0.003
01/05/2023,09:00:16,0.245,1.0,0.705,0.004
01/05/2023,09:01:16,0.292,1.0,0.709,0.004
01/05/2023,09:02:16,0.370,1.0,0.715,0.006
01/05/2023,09:03:18,0.462,1.0,0.722,0.007
01/05/2023,09:04:16,0.515,1.0,0.73,0.008
01/05/2023,09:05:16,0.553,1.0,0.739,0.009
01/05/2023,09:06:15,0.577,1.0,0.748,0.009
01/05/2023,09:07:15,0.593,1.0,0.758,0.01
01/05/2023,09:08:16,0.622,1.0,0.768,0.01
01/05/2023,09:09:16,0.598,1.0,0.778,0.01
01/05/2023,09:10:16,0.583,1.0,0.788,0.01
01/05/2023,09:11:16,0.580,1.0,0.798,0.01
01/05/2023,09:12:16,0.580,1.0,0.807,0.009
01/05/2023,09:13:16,0.581,1.0,0.817,0.01
01/05/2023,09:14:16,0.585,1.0,0.827,0.01
01/05/2023,09:15:16,0.594,1.0,0.836,0.009
01/05/2023,09:16:15,0.607,1.0,0.846,0.01
01/05/2023,09:17:16,0.629,1.0,0.857,0.011
01/05/2023,09:18:16,0.661,2.0,0.867,0.01
01/05/2023,09:19:16,0.649,1.0,0.879,0.012
01/05/2023,09:20:16,0.658,2.0,0.89,0.011
01/05/2023,09:21:16,0.759,2.0,0.901,0.011
01/05/2023,09:22:15,0.636,1.0,0.913,0.012
01/05/2023,09:23:15,0.579,1.0,0.924,0.011
01/05/2023,09:24:15,0.548,1.0,0.933,0.009
01/05/2023,09:25:16,0.513,1.0,0.942,0.009
01/05/2023,09:26:16,0.488,1.0,0.95,0.008
01/05/2023,09:27:15,0.478,1.0,0.958,0.008
01/05/2023,09:28:15,0.477,1.0,0.966,0.008
01/05/2023,09:29:16,0.495,1.0,0.974,0.008
01/05/2023,09:30:16,0.507,1.0,0.983,0.009
01/05/2023,09:31:16,0.527,1.0,0.991,0.008
01/05/2023,09:32:16,0.558,1.0,1.0,0.009
01/05/2023,09:33:16,0.581,1.0,1.01,0.01
01/05/2023,09:34:16,0.598,1.0,1.02,0.01
01/05/2023,09:35:15,0.626,1.0,1.03,0.01
01/05/2023,09:36:16,0.657,2.0,1.041,0.011
01/05/2023,09:37:15,0.690,2.0,1.051,0.01
01/05/2023,09:38:16,0.714,2.0,1.064,0.013
01/05/2023,09:39:15,0.733,2.0,1.075,0.011
01/05/2023,09:40:16,0.753,2.0,1.088,0.013
01/05/2023,09:41:15,0.764,2.0,1.1,0.012
01/05/2023,09:42:37,0.773,2.0,1.118,0.018
01/05/2023,09:44:16,0.782,2.0,1.139,0.021
01/05/2023,09:45:16,0.772,2.0,1.152,0.013
01/05/2023,09:46:16,0.783,2.0,1.165,0.013
01/05/2023,09:47:15,0.784,2.0,1.178,0.013
01/05/2023,09:48:15,0.790,2.0,1.191,0.013
01/05/2023,09:49:15,0.811,2.0,1.204,0.013
01/05/2023,09:50:16,1.086,2.0,1.22,0.016
01/05/2023,09:51:17,1.285,3.0,1.24,0.02
01/05/2023,09:52:15,1.365,3.0,1.26,0.02
01/05/2023,09:53:15,1.315,3.0,1.283,0.023
01/05/2023,09:54:15,1.387,3.0,1.306,0.023
01/05/2023,09:55:15,1.383,3.0,1.328,0.022
01/05/2023,09:56:15,1.406,3.0,1.352,0.024
01/05/2023,09:57:16,1.396,3.0,1.375,0.023
01/05/2023,09:58:16,1.469,3.0,1.397,0.022
01/05/2023,09:59:15,1.443,3.0,1.421,0.024
01/05/2023,10:00:15,1.429,3.0,1.445,0.024
01/05/2023,10:01:15,0.883,2.0,1.467,0.022
01/05/2023,10:02:15,1.329,3.0,1.485,0.018
01/05/2023,10:03:15,1.135,3.0,1.505,0.02